Regional Weather Roundup
Issued by NWS Albany, NY

Home | Current Version | Previous Version | Text Only | Print | Product List | Glossary On
Versions: 1 2 3 4 5 6 7 8 9 10 11 12 13 14 15 16 17 18 19 20 21 22 23 24 25 26 27 28
000
ASUS41 KALY 250610
RWRALY

NEW YORK STATE HOURLY WEATHER ROUNDUP
NATIONAL WEATHER SERVICE ALBANY NY
200 AM EDT SUN SEP 25 2016

NOTE: "FAIR" INDICATES FEW OR NO CLOUDS BELOW 12,000 FEET WITH NO
SIGNIFICANT WEATHER AND/OR NO OBSTRUCTIONS TO VISIBILITY.

NYZ032-033-038>043-046>054-057>066-NYZ062>081-082-084-250700-
EAST


CITY           SKY/WX    TMP DP  RH WIND       PRES   REMARKS
ALBANY         CLEAR     45  39  79 W3        30.18R
GLENS FALLS    CLEAR     41  38  89 CALM      30.18R
POUGHKEEPSIE   CLEAR     43  41  93 CALM      30.16S
NEWBURGH       CLEAR     46  43  87 VRB6      30.18S
MONTGOMERY     CLEAR     46  43  89 CALM      30.17S
WHITE PLAINS   CLEAR     51  40  65 N8        30.15R
ISLIP          CLEAR     56  44  64 N5        30.13R
NEW YORK CITY  CLEAR     62  44  51 N9        30.15R
CENTRAL PARK   CLEAR     58  43  57 VRB5      30.19R
$$

NYZ005>009-017-018-044>046-055-056-250700-
CENTRAL


CITY           SKY/WX    TMP DP  RH WIND       PRES   REMARKS
FULTON         CLEAR     44  39  82 CALM      30.23R
SYRACUSE       MOCLDY    48  43  82 N7        30.22R
ROME           CLEAR     41  40  96 NE5       30.23R
ELMIRA         CLEAR     41  38  89 W5        30.23R
BINGHAMTON     CLEAR     46  38  73 NW6       30.20S
MONTICELLO     CLEAR     43  37  81 W6        30.20R
$$

NYZ026>034-041>043-087-250700-
NORTH


CITY           SKY/WX    TMP DP  RH WIND       PRES   REMARKS
WATERTOWN      CLEAR     37  35  92 NE3       30.24R
FORT DRUM      NOT AVBL
OGDENSBURG     FAIR      43  37  80 CALM      30.23R
MASSENA        CLEAR     44  36  73 N3        30.24R
SARANAC LAKE   CLEAR     28  26  92 CALM      30.18R
PLATTSBURGH    CLEAR     47  35  63 NW7       30.18R
$$

NYZ001>004-010>016-019>021-085-250700-
WEST


CITY           SKY/WX    TMP DP  RH WIND       PRES   REMARKS
NIAGARA FALLS  MOCLDY    50  41  71 CALM      30.24S
BUFFALO        CLEAR     47  41  80 CALM      30.24S
DUNKIRK        CLEAR     40  38  93 SE3       30.25R
JAMESTOWN      CLEAR     45  37  76 NE3       30.23S
WELLSVILLE     CLEAR     42  38  85 CALM      30.25S
ROCHESTER      PTCLDY    46  42  86 W5        30.23S
PENN YAN       MOCLDY    50  45  83 SW8       30.22F
$$

             KEY
       WCI = WIND CHILL INDEX
       VSB = VISIBILITY
       HX  = HEAT INDEX
$$




USA.gov is the U.S. government's official web portal to all federal, state and local government web resources and services.